| time (UTC) | temp F | wind direction | speed knots | gust knots | rain 1hr in | rain 24hr in | rain mn in | humidity % | barometer mb |
| 20260504231544 | 66 | 149 | 0.0 | 4.3 | 0.00 | 0.00 | 0.00 | 52 | 1010.2 |
| 20260504230043 | 67 | 194 | 2.6 | 6.1 | 0.00 | 0.00 | 0.00 | 49 | 1010.2 |
| 20260504224540 | 68 | 174 | 0.0 | 3.5 | 0.00 | 0.00 | 0.00 | 50 | 1010.2 |
| 20260504223040 | 68 | 208 | 0.0 | 1.7 | 0.00 | 0.00 | 0.00 | 50 | 1010.2 |
| 20260504221538 | 70 | 173 | 0.0 | 3.5 | 0.00 | 0.00 | 0.00 | 46 | 1010.1 |
| 20260504220033 | 71 | 248 | 0.0 | 9.6 | 0.00 | 0.00 | 0.00 | 43 | 1010.0 |
| 20260504214536 | 71 | 200 | 1.7 | 5.2 | 0.00 | 0.00 | 0.00 | 46 | 1010.2 |
| 20260504213031 | 71 | 185 | 0.0 | 4.3 | 0.00 | 0.00 | 0.00 | 44 | 1010.2 |
| 20260504211530 | 72 | 226 | 1.7 | 7.0 | 0.00 | 0.00 | 0.00 | 42 | 1010.2 |
| 20260504210029 | 72 | 219 | 0.9 | 6.1 | 0.00 | 0.00 | 0.00 | 40 | 1010.2 |
| 20260504204531 | 72 | 160 | 0.0 | 7.0 | 0.00 | 0.00 | 0.00 | 40 | 1010.3 |
| 20260504203025 | 72 | 126 | 1.7 | 4.3 | 0.00 | 0.00 | 0.00 | 42 | 1010.4 |
| 20260504201522 | 73 | 211 | 1.7 | 7.0 | 0.00 | 0.00 | 0.00 | 40 | 1010.5 |
| 20260504200020 | 72 | 277 | 0.0 | 7.0 | 0.00 | 0.00 | 0.00 | 39 | 1010.8 |
| 20260504194516 | 72 | 186 | 2.6 | 8.7 | 0.00 | 0.00 | 0.00 | 39 | 1011.0 |
| 20260504193014 | 73 | 198 | 1.7 | 6.1 | 0.00 | 0.00 | 0.00 | 39 | 1011.4 |
| 20260504191514 | 73 | 200 | 2.6 | 7.8 | 0.00 | 0.00 | 0.00 | 38 | 1011.5 |
| 20260504190007 | 73 | 210 | 1.7 | 6.1 | 0.00 | 0.00 | 0.00 | 40 | 1011.9 |
| 20260504184506 | 72 | 213 | 0.0 | 7.8 | 0.00 | 0.00 | 0.00 | 37 | 1012.1 |
| 20260504183003 | 72 | 298 | 3.5 | 7.0 | 0.00 | 0.00 | 0.00 | 37 | 1012.2 |
| 20260504181606 | 73 | 224 | 1.7 | 5.2 | 0.00 | 0.00 | 0.00 | 43 | 1012.3 |
| 20260504180056 | 71 | 247 | 0.0 | 7.0 | 0.00 | 0.00 | 0.00 | 42 | 1012.4 |
| 20260504174552 | 71 | 293 | 0.9 | 5.2 | 0.00 | 0.00 | 0.00 | 38 | 1012.6 |
| 20260504173049 | 69 | 229 | 0.9 | 7.8 | 0.00 | 0.00 | 0.00 | 37 | 1012.8 |
| 20260504171546 | 70 | 133 | 0.0 | 7.8 | 0.00 | 0.00 | 0.00 | 41 | 1013.0 |
| 20260504081528 | 35 | 139 | 0.0 | 0.0 | 0.00 | 0.00 | 0.00 | 92 | 1016.0 |
| 20260504044551 | 37 | 138 | 0.0 | 0.0 | 0.00 | 0.00 | 0.00 | 88 | 1016.4 |
| 20260504043057 | 36 | 138 | 0.0 | 0.0 | 0.00 | 0.00 | 0.00 | 88 | 1016.3 |
| 20260504041546 | 37 | 138 | 0.0 | 0.0 | 0.00 | 0.00 | 0.00 | 87 | 1016.3 |
| 20260504040043 | 38 | 138 | 0.0 | 0.0 | 0.00 | 0.00 | 0.00 | 85 | 1016.2 |
| 20260504034542 | 38 | 138 | 0.0 | 0.0 | 0.00 | 0.00 | 0.00 | 85 | 1016.1 |
| 20260504033040 | 39 | 138 | 0.0 | 0.0 | 0.00 | 0.00 | 0.00 | 82 | 1016.0 |
| 20260504031540 | 39 | 138 | 0.0 | 0.0 | 0.00 | 0.00 | 0.00 | 83 | 1015.8 |
| 20260504030038 | 40 | 138 | 0.0 | 0.0 | 0.00 | 0.00 | 0.00 | 79 | 1015.7 |
| 20260504024537 | 41 | 138 | 0.0 | 0.0 | 0.00 | 0.00 | 0.00 | 79 | 1015.8 |
| 20260504023039 | 41 | 138 | 0.0 | 0.0 | 0.00 | 0.00 | 0.00 | 77 | 1015.6 |
| 20260504021537 | 42 | 138 | 0.0 | 0.0 | 0.00 | 0.00 | 0.00 | 76 | 1015.6 |
| 20260504020053 | 43 | 138 | 0.0 | 0.0 | 0.00 | 0.00 | 0.00 | 73 | 1015.5 |
| 20260504014553 | 44 | 138 | 0.0 | 0.0 | 0.00 | 0.00 | 0.00 | 71 | 1015.5 |
| 20260504013044 | 45 | 138 | 0.0 | 0.0 | 0.00 | 0.00 | 0.00 | 72 | 1015.5 |
| 20260504011536 | 46 | 138 | 0.0 | 0.0 | 0.00 | 0.00 | 0.00 | 69 | 1015.1 |
| 20260504010039 | 47 | 138 | 0.0 | 0.0 | 0.00 | 0.00 | 0.00 | 65 | 1015.1 |
| 20260504004543 | 50 | 138 | 0.0 | 0.0 | 0.00 | 0.00 | 0.00 | 56 | 1014.9 |
| 20260504003034 | 51 | 138 | 0.0 | 0.0 | 0.00 | 0.00 | 0.00 | 59 | 1014.7 |
| 20260504001545 | 53 | 138 | 0.0 | 0.0 | 0.00 | 0.00 | 0.00 | 46 | 1014.7 |
| 20260504000032 | 54 | 138 | 0.0 | 0.0 | 0.00 | 0.00 | 0.00 | 44 | 1014.5 |
| 20260503234531 | 55 | 137 | 0.0 | 0.9 | 0.00 | 0.00 | 0.00 | 46 | 1014.4 |
| 20260503233038 | 56 | 134 | 0.0 | 0.0 | 0.00 | 0.00 | 0.00 | 40 | 1014.1 |